This demonstration page uses our WeatherBlox Daily Observations layout. Learn more.

Left ArrowRight Arrow

38.20091, -84.87328

Hourly Observations for October 30, 2021

Temp ( °F °C ) Dew Point ( °F °C ) Humidity (%) Winds ( mph kmh ) Pressure ( in mb ) Visibility ( mi km ) Precip ( " mm )
12:22 am 00:22 Cloudy with Light Rain 56 13.3 55 12.8 97 97 WSW 7 11 29.45 997 6 10 0.04 1.02
12:31 am 00:31 Cloudy with Light Rain 56 13.3 55 12.8 97 97 WSW 8 13 29.44 997 7 11 0.04 1.02
12:53 am 00:53 Cloudy with Light Rain 56 13.3 55 12.8 97 97 WSW 7 11 29.43 997 9 14 0.06 1.52
1:10 am 01:10 Cloudy with Light Rain 56 13.3 55 12.8 97 97 WSW 7 11 29.44 997 7 11 0.00 0.00
1:53 am 01:53 Cloudy with Light Rain 56 13.3 55 12.8 97 97 W 6 9 29.42 996 6 10 0.07 1.78
2:13 am 02:13 Cloudy with Rain 56 13.3 55 12.8 97 97 W 7 11 29.43 997 2 3 0.05 1.27
2:30 am 02:30 Cloudy with Rain 56 13.3 55 12.8 97 97 W 7 11 29.43 997 3 5 0.09 2.29
2:43 am 02:43 Cloudy with Light Rain 56 13.3 55 12.8 97 97 W 7 11 29.43 997 3 5 0.11 2.79
2:53 am 02:53 Cloudy with Rain 56 13.3 55 12.8 97 97 W 6 9 29.42 996 3 4 0.13 3.30
3:08 am 03:08 Cloudy with Light Rain 56 13.3 55 12.8 97 97 W 7 11 29.43 997 4 6 0.02 0.51
3:53 am 03:53 Cloudy with Rain 56 13.3 55 12.8 97 97 W 7 11 29.41 996 5 8 0.07 1.78
4:10 am 04:10 Cloudy with Light Rain 56 13.3 55 12.8 97 97 W 7 11 29.43 997 7 11 0.01 0.25
4:53 am 04:53 Cloudy with Light Rain 56 13.3 55 12.8 97 97 W 8 13 29.41 996 8 13 0.03 0.76
5:51 am 05:51 Cloudy with Mist and Fog 55 13 55 13 100 100 W 6 9 29.43 997 3 4 0.01 0.25
5:53 am 05:53 Cloudy with Mist and Fog 56 13.3 55 12.8 97 97 W 5 7 29.41 996 3 4 0.01 0.25
6:02 am 06:02 Cloudy with Light Rain 56 13.3 54 12.2 93 93 W 7 11 29.43 997 3 5 0.00 0.00
6:36 am 06:36 Cloudy with Light Rain 55 12.8 55 12.8 100 100 W 6 9 29.43 997 3 4 0.01 0.25
6:53 am 06:53 Cloudy with Light Rain 55 12.8 54 12.2 96 96 W 7 11 29.42 996 3 5 0.02 0.51
7:53 am 07:53 Cloudy with Light Rain 55 12.8 54 12.2 96 96 NNW 7 11 29.43 997 5 8 0.08 2.03
8:10 am 08:10 Cloudy with Light Rain 55 12.8 54 12.2 96 96 NNW 5 7 29.45 997 3 5 0.02 0.51
8:53 am 08:53 Cloudy with Rain 55 12.8 53 11.7 93 93 NW 6 9 29.47 998 4 6 0.10 2.54
9:53 am 09:53 Cloudy with Light Rain 55 12.8 53 11.7 93 93 NNW 7 11 29.49 999 6 10 0.06 1.52
10:35 am 10:35 Cloudy 55 12.8 53 11.7 93 93 NNW 7 11 29.51 999 8 13 0.00 0.00
10:38 am 10:38 Cloudy 55 12.8 53 11.7 93 93 NNW 6 9 29.51 999 8 13 0.00 0.00
10:47 am 10:47 Cloudy with Light Rain 55 13 54 12 94 94 NNW 6 9 29.51 999 6 10 0.00 0.00
10:53 am 10:53 Cloudy with Light Rain 55 12.8 53 11.7 93 93 NNW 6 9 29.50 999 6 10 0.00 0.00
11:02 am 11:02 Cloudy 55 12.8 53 11.7 93 93 NNW 7 11 29.51 999 10 16 0.00 0.00
11:53 am 11:53 Cloudy 56 13.3 54 12.2 93 93 VRB 6 9 29.52 1000 10 16 0.00 0.00
12:04 pm 12:04 Cloudy 57 13.9 54 12.2 90 90 NW 6 9 29.53 1000 10 16 N/A
12:21 pm 12:21 Cloudy 57 13.9 53 11.7 87 87 NW 8 13 29.53 1000 10 16 N/A
12:33 pm 12:33 Cloudy 56 13.3 53 11.7 90 90 NW 7 11 29.53 1000 8 13 N/A
12:41 pm 12:41 Cloudy 56 13.3 53 11.7 90 90 NW 7 11 29.53 1000 8 13 N/A
12:53 pm 12:53 Cloudy 56 13.3 53 11.7 90 90 NW 8 13 29.52 1000 10 16 N/A
1:33 pm 13:33 Cloudy with Mist and Fog 55 12.8 52 11.1 90 90 NW 12 19 29.53 1000 6 10 N/A
1:53 pm 13:53 Cloudy 55 12.8 52 11.1 90 90 WNW 6 9 29.53 1000 10 16 N/A
2:53 pm 14:53 Cloudy 55 12.8 52 11.1 90 90 VRB 7 11 29.53 1000 7 11 N/A
3:27 pm 15:27 Cloudy with Rain 55 12.8 53 11.7 93 93 W 7 11 29.55 1001 2 3 0.02 0.51
3:33 pm 15:33 Cloudy with Light Rain 55 12.8 53 11.7 93 93 WNW 9 15 29.55 1001 2 3 0.02 0.51
3:41 pm 15:41 Cloudy with Light Rain 54 12.2 53 11.7 97 97 WNW 5 7 29.56 1001 3 4 0.02 0.51
3:45 pm 15:45 Cloudy with Light Rain 55 12.8 53 11.7 93 93 WNW 8 13 29.56 1001 3 5 0.02 0.51
3:53 pm 15:53 Cloudy with Mist and Fog 54 12.2 53 11.7 97 97 NW 12 19 29.56 1001 6 10 0.02 0.51
4:27 pm 16:27 Cloudy 54 12.2 52 11.1 93 93 NW 8 13 29.57 1001 10 16 N/A
4:40 pm 16:40 Cloudy 55 12.8 53 11.7 93 93 WNW 6 9 29.58 1002 10 16 N/A
4:53 pm 16:53 Cloudy 55 12.8 53 11.7 93 93 VRB 7 11 29.58 1002 10 16 N/A
5:04 pm 17:04 Cloudy 55 12.8 53 11.7 93 93 WNW 7 11 29.59 1002 10 16 N/A
5:18 pm 17:18 Cloudy 55 12.8 52 11.1 90 90 WNW 7 11 29.59 1002 10 16 N/A
5:53 pm 17:53 Cloudy with Mist and Fog 54 12.2 52 11.1 93 93 WNW 6 9 29.60 1003 5 8 0.00 0.00
6:49 pm 18:49 Cloudy 54 12 52 11 94 94 WNW 7 11 29.64 1004 10 16 N/A
6:53 pm 18:53 Cloudy 54 12.2 52 11.1 93 93 WNW 7 11 29.63 1004 10 16 N/A
7:53 pm 19:53 Cloudy 54 12.2 51 10.6 90 90 NW 5 7 29.66 1004 10 16 N/A
8:04 pm 20:04 Cloudy 54 12.2 52 11.1 93 93 WNW 3 6 29.67 1005 10 16 N/A
8:53 pm 20:53 Cloudy 54 12.2 51 10.6 90 90 WNW 7 11 29.68 1005 10 16 N/A
9:04 pm 21:04 Cloudy 54 12.2 51 10.6 90 90 WNW 7 11 29.69 1006 10 16 N/A
9:53 pm 21:53 Cloudy 54 12.2 51 10.6 90 90 WNW 6 9 29.70 1006 10 16 N/A
10:53 pm 22:53 Cloudy 53 11.7 52 11.1 96 96 W 5 7 29.72 1006 10 16 N/A
11:28 pm 23:28 Cloudy with Mist and Fog 53 11.7 52 11.1 96 96 WNW 5 7 29.74 1007 5 8 N/A
11:45 pm 23:45 Cloudy with Mist and Fog 53 11.7 52 11.1 96 96 N N/A 29.74 1007 3 5 N/A
11:53 pm 23:53 Cloudy with Mist and Fog 53 11.7 52 11.1 96 96 NW 6 9 29.73 1007 3 5 N/A

Powered by AerisWeather